• In Hungary
  • List of Countries
  • For 7 days
  • Water Temperature
  • Satellite Maps
  • Weather Map
  • News
  • Weather Widgets
  • user-avatar
    Login

    Hourly Weather Mineral'nye Vody

    Today, 19 January, Friday

    Time Temperature Precipitation Wind Pressure Humidity
    00:00 -5°C° 0 mm 5 mps 705 mmHg 93%
    01:00 -5°C° 0 mm 5 mps 704 mmHg 93%
    02:00 -5°C° 0 mm 5 mps 704 mmHg 93%
    03:00 -5°C° 0 mm 3 mps 705 mmHg 94%
    04:00 -5°C° 0.1 mm 4 mps 705 mmHg 94%
    05:00 -5°C° 0.1 mm 4 mps 705 mmHg 94%
    06:00 -5°C° 0.1 mm 4 mps 705 mmHg 94%
    07:00 -4°C° 0 mm 4 mps 705 mmHg 93%
    08:00 -4°C° 0 mm 4 mps 705 mmHg 93%
    09:00 -4°C° 0 mm 4 mps 706 mmHg 93%
    10:00 -2°C° 0 mm 3 mps 706 mmHg 94%
    11:00 -1°C° 0 mm 3 mps 707 mmHg 96%
    12:00 -1°C° 0 mm 3 mps 707 mmHg 97%
    13:00 -1°C° 0 mm 3 mps 707 mmHg 97%
    14:00 0°C° 0 mm 3 mps 708 mmHg 97%
    15:00 +1°C° 0 mm 2 mps 708 mmHg 97%
    16:00 -1°C° 0.1 mm 2 mps 709 mmHg 96%
    17:00 -1°C° 0.1 mm 2 mps 710 mmHg 95%
    18:00 -1°C° 0.1 mm 2 mps 710 mmHg 94%
    19:00 -1°C° 0.1 mm 2 mps 711 mmHg 93%
    20:00 -1°C° 0.1 mm 2 mps 711 mmHg 93%
    21:00 -2°C° 0.1 mm 2 mps 711 mmHg 92%
    22:00 +1°C° 0 mm 1 mps 712 mmHg 92%
    23:00 +1°C° 0 mm 1 mps 712 mmHg 91%

    Tomorrow, 20 January, Saturday

    Time Temperature Precipitation Wind Pressure Humidity
    00:00 +1°C° 0 mm 1 mps 713 mmHg 90%
    01:00 +1°C° 0 mm 1 mps 713 mmHg 89%
    02:00 +1°C° 0 mm 1 mps 714 mmHg 88%
    03:00 +1°C° 0 mm 1 mps 714 mmHg 88%
    04:00 +1°C° 0 mm 1 mps 715 mmHg 88%
    05:00 -1°C° 0 mm 2 mps 715 mmHg 87%
    06:00 +1°C° 0 mm 2 mps 716 mmHg 87%
    07:00 -1°C° 0 mm 2 mps 716 mmHg 86%
    08:00 +1°C° 0 mm 1 mps 716 mmHg 85%
    09:00 +1°C° 0 mm 1 mps 717 mmHg 84%
    10:00 +2°C° 0 mm 1 mps 717 mmHg 88%
    11:00 +2°C° 0 mm 1 mps 717 mmHg 92%
    12:00 +3°C° 0 mm 1 mps 717 mmHg 96%
    13:00 +3°C° 0 mm 1 mps 716 mmHg 96%
    14:00 +3°C° 0 mm 1 mps 716 mmHg 97%
    15:00 +3°C° 0 mm 1 mps 716 mmHg 97%
    16:00 +1°C° 0 mm 2 mps 716 mmHg 95%
    17:00 +1°C° 0 mm 2 mps 716 mmHg 92%
    18:00 -1°C° 0 mm 2 mps 716 mmHg 90%
    19:00 -1°C° 0 mm 2 mps 716 mmHg 88%
    20:00 -1°C° 0 mm 2 mps 715 mmHg 87%
    21:00 -1°C° 0 mm 3 mps 715 mmHg 86%
    22:00 -1°C° 0 mm 3 mps 715 mmHg 84%
    23:00 -1°C° 0 mm 3 mps 714 mmHg 83%

    Day after tomorrow, 21 January, Sunday

    Time Temperature Precipitation Wind Pressure Humidity
    00:00 -1°C° 0 mm 3 mps 714 mmHg 81%
    01:00 -1°C° 0 mm 3 mps 714 mmHg 82%
    02:00 -1°C° 0 mm 3 mps 714 mmHg 82%
    03:00 -1°C° 0 mm 3 mps 714 mmHg 82%
    04:00 -1°C° 0 mm 3 mps 713 mmHg 82%
    05:00 -1°C° 0 mm 3 mps 713 mmHg 82%
    06:00 -1°C° 0 mm 3 mps 713 mmHg 82%
    07:00 -1°C° 0 mm 3 mps 712 mmHg 82%
    08:00 0°C° 0 mm 3 mps 712 mmHg 82%
    09:00 0°C° 0 mm 3 mps 712 mmHg 82%
    10:00 0°C° 0 mm 3 mps 712 mmHg 86%
    11:00 +2°C° 0 mm 2 mps 712 mmHg 89%
    12:00 +2°C° 0 mm 2 mps 712 mmHg 92%
    13:00 +2°C° 0 mm 2 mps 712 mmHg 92%
    14:00 +3°C° 0 mm 2 mps 712 mmHg 92%
    15:00 +4°C° 0 mm 1 mps 712 mmHg 92%
    16:00 +3°C° 0 mm 1 mps 713 mmHg 88%
    17:00 +3°C° 0 mm 1 mps 713 mmHg 85%
    18:00 +2°C° 0 mm 1 mps 714 mmHg 81%
    19:00 +2°C° 0 mm 1 mps 714 mmHg 80%
    20:00 +2°C° 0 mm 1 mps 714 mmHg 78%
    21:00 +2°C° 0 mm 1 mps 714 mmHg 76%
    22:00 +1°C° 0 mm 1 mps 714 mmHg 76%
    23:00 +1°C° 0 mm 1 mps 714 mmHg 77%

    22 January, Monday

    Time Temperature Precipitation Wind Pressure Humidity
    00:00 -1°C° 0 mm 2 mps 713 mmHg 77%
    01:00 -1°C° 0 mm 2 mps 713 mmHg 78%
    02:00 -1°C° 0 mm 2 mps 712 mmHg 78%
    03:00 -1°C° 0 mm 2 mps 712 mmHg 79%
    04:00 -1°C° 0 mm 2 mps 711 mmHg 80%
    05:00 -1°C° 0 mm 2 mps 711 mmHg 81%
    06:00 -1°C° 0 mm 3 mps 710 mmHg 82%
    07:00 -1°C° 0 mm 3 mps 710 mmHg 83%
    08:00 -1°C° 0 mm 3 mps 709 mmHg 84%
    09:00 -1°C° 0 mm 3 mps 709 mmHg 85%
    10:00 0°C° 0 mm 3 mps 708 mmHg 87%
    11:00 0°C° 0 mm 3 mps 708 mmHg 89%
    12:00 +1°C° 0 mm 3 mps 707 mmHg 91%
    13:00 +1°C° 0 mm 3 mps 707 mmHg 92%
    14:00 +2°C° 0 mm 2 mps 706 mmHg 92%
    15:00 +2°C° 0 mm 2 mps 706 mmHg 93%
    16:00 +2°C° 0 mm 2 mps 706 mmHg 91%
    17:00 +1°C° 0 mm 2 mps 706 mmHg 90%
    18:00 +1°C° 0 mm 2 mps 706 mmHg 89%
    19:00 +1°C° 0 mm 2 mps 706 mmHg 88%
    20:00 +1°C° 0 mm 2 mps 706 mmHg 88%
    21:00 +1°C° 0 mm 2 mps 706 mmHg 87%
    22:00 +2°C° 0 mm 1 mps 706 mmHg 86%
    23:00 +2°C° 0 mm 1 mps 706 mmHg 86%

    23 January, Tuesday

    Time Temperature Precipitation Wind Pressure Humidity
    00:00 +2°C° 0 mm 1 mps 706 mmHg 86%
    01:00 +2°C° 0 mm 1 mps 706 mmHg 85%
    02:00 +1°C° 0 mm 1 mps 706 mmHg 85%
    03:00 +1°C° 0 mm 1 mps 706 mmHg 84%
    04:00 +1°C° 0 mm 1 mps 706 mmHg 84%
    05:00 +1°C° 0 mm 1 mps 707 mmHg 84%
    06:00 +1°C° 0 mm 1 mps 707 mmHg 83%
    07:00 +1°C° 0 mm 1 mps 707 mmHg 83%
    08:00 +1°C° 0 mm 1 mps 707 mmHg 82%
    09:00 +2°C° 0 mm 1 mps 707 mmHg 82%
    10:00 +2°C° 0 mm 1 mps 707 mmHg 85%
    11:00 +3°C° 0 mm 1 mps 708 mmHg 88%
    12:00 +2°C° 0 mm 0 mps 708 mmHg 91%
    13:00 +3°C° 0 mm 1 mps 708 mmHg 91%
    14:00 +3°C° 0 mm 1 mps 708 mmHg 92%
    15:00 +3°C° 0 mm 1 mps 708 mmHg 92%
    16:00 +2°C° 0 mm 1 mps 709 mmHg 92%
    17:00 +1°C° 0 mm 1 mps 709 mmHg 93%
    18:00 0°C° 0 mm 0 mps 710 mmHg 93%
    19:00 0°C° 0 mm 0 mps 710 mmHg 93%
    20:00 -1°C° 0 mm 0 mps 710 mmHg 93%
    21:00 -1°C° 0 mm 0 mps 711 mmHg 92%
    22:00 -1°C° 0 mm 0 mps 711 mmHg 92%
    23:00 0°C° 0 mm 1 mps 711 mmHg 92%

    24 January, Wednesday

    Time Temperature Precipitation Wind Pressure Humidity
    00:00 0°C° 0 mm 1 mps 712 mmHg 92%
    01:00 +1°C° 0.1 mm 1 mps 712 mmHg 92%
    02:00 +1°C° 0.1 mm 1 mps 712 mmHg 93%
    03:00 +1°C° 0.1 mm 1 mps 713 mmHg 93%
    04:00 +1°C° 0.4 mm 1 mps 713 mmHg 94%
    05:00 +1°C° 0.4 mm 1 mps 714 mmHg 95%
    06:00 +1°C° 0.4 mm 1 mps 714 mmHg 96%
    07:00 +1°C° 0.7 mm 1 mps 714 mmHg 96%
    08:00 +1°C° 0.7 mm 1 mps 715 mmHg 97%
    09:00 +1°C° 0.7 mm 1 mps 715 mmHg 97%
    10:00 +1°C° 0.6 mm 1 mps 716 mmHg 97%
    11:00 +1°C° 0.6 mm 1 mps 716 mmHg 98%
    12:00 +1°C° 0.6 mm 1 mps 716 mmHg 98%
    13:00 +1°C° 0.5 mm 1 mps 716 mmHg 98%
    14:00 +1°C° 0.5 mm 1 mps 716 mmHg 98%
    15:00 +1°C° 0.5 mm 1 mps 717 mmHg 98%
    16:00 +1°C° 0.3 mm 1 mps 717 mmHg 98%
    17:00 +1°C° 0.3 mm 1 mps 718 mmHg 97%
    18:00 +1°C° 0.3 mm 1 mps 718 mmHg 96%
    19:00 +1°C° 0.2 mm 1 mps 719 mmHg 96%
    20:00 +1°C° 0.2 mm 1 mps 719 mmHg 96%
    21:00 +1°C° 0.2 mm 1 mps 719 mmHg 96%
    22:00 0°C° 0.1 mm 1 mps 720 mmHg 96%
    23:00 0°C° 0.1 mm 1 mps 720 mmHg 96%
    Show more